Location: Asni�res
(49.1337°N, 2.3555°E)
Time: 21:59:45
(UTC+00:00)

Cosmos 1125 Rocket - Pass Details

Date: 16 October 2021
Orbit: 758 x 779 km, 74.0° (Epoch: 06 December)

Event Time Altitude Azimuth Distance (km) Brightness Sun altitude
Rises 17:35:07 0° 178° (S) 3,236 6.8 -6.8°
Reaches altitude 10° 17:37:37 10° 170° (S) 2,311 6.0 -7.2°
Maximum altitude 17:42:27 38° 103° (ESE) 1,159 4.0 -8.0°
Drops below altitude 10° 17:47:16 10° 37° (NE) 2,313 5.6 -8.7°
Sets 17:49:46 0° 30° (NNE) 3,241 6.4 -9.2°
